Weather in Spirino

Russia / Novosibirsk Oblast     54°08′02″N   81°33′24″E
temp.,
°C
wind,
m/s
gust,
m/s
humid.,
%
clouds,
%
prec.,
mm/h
press.,
hPa
HPBL,
m
1 march, mon
mon101:00−9se41095100 0.5 1018526
04:00−7sse51195100 1.4 1014647
07:00−6sse51195100 3.4 1010494
10:00−1s3798100 2.4 1008365
13:000wsw59100100 3.6 1007601
16:000wsw37100100 1.8 1007410
19:000sw4899100 3.1 1007431
22:00−1wsw61296100 2.0 1007672
2 march, tue
tue201:00−6nnw2697100 2.7 1009230
04:00−11n229699 0.3 101022
07:00−12nw229694 0.5 101324
10:00−13w249591 0.1 1015179
13:00−11w349392 0.2 1016354
16:00−10w3492100 0.1 1016424
19:00−13nw2296100 0.2 101640
22:00−15wnw119695 0.1 101620
3 march, wed
wed301:00−16w119688 0.1 101520
04:00−16w119788 0.1 101620
07:00−15wsw119793 0.3 101720
10:00−14sw2396100 0.2 1017127
13:00−11sw359196 0.3 1018447
16:00−9sw4690100 0.1 1019635
19:00−11ssw5992100 0.3 1021397
22:00−15ssw5119598 0.0 1022319
4 march, thu
thu401:00−15s5129597 0.1 1022375
04:00−12ssw61294100 0.2 1020495
07:00−10ssw61394100 0.6 1020547
10:00−8ssw71492100 0.4 1018594
13:00−7ssw81493100 0.8 1018618
16:00−5ssw81590100 0.4 1016734
19:00−4ssw81592100 0.6 1015785
22:00−5ssw81689100 0.1 1014658
5 march, fri
fri501:00−6ssw71687100 0.1 1013539
04:00−7ssw7168649 0.0 1011483
07:00−7s6148775 0.0 1010460
10:00−5ssw61295100 0.7 1009544
13:00−2sw61192100 1.3 1009778
16:00−2w81284100 0.4 10131103
19:00−7wsw6138786 0.4 1019566
22:00−9ssw7158984 0.0 1020571